Regional Weather Roundup
Issued by NWS Northern Indiana

Home | Current Version | Previous Version | Graphics & Text | Print | Product List | Glossary On
Versions: 1 2 3 4 5 6 7 8 9 10 11 12 13 14 15 16 17 18 19 20 21 22 23 24 25 26 27 28 29 30 31 32 33 34 35 36 37 38 39 40 41 42 43 44 45 46 47 48 49 50
000
ASUS43 KIWX 311900
RWRIWX

KIWX WEATHER ROUNDUP
NATIONAL WEATHER SERVICE NORTHERN INDIANA
200 PM EST SAT JAN 31 2015

NOTE: "FAIR" INDICATES FEW OR NO CLOUDS BELOW 12,000 FEET WITH NO
SIGNIFICANT WEATHER AND/OR OBSTRUCTIONS TO VISIBILITY.

* THESE STATIONS ARE NOT UNDER NWS QUALITY CONTROL. THEY ALSO MAY NOT
  REPORT WEATHER SUCH AS PRECIPITATION OR FOG.

INZ001>027-312000-
NORTHERN INDIANA

CITY           SKY/WX    TMP DP  RH WIND       PRES   REMARKS
SOUTH BEND     MOSUNNY   37  23  56 SW10      30.19F
GOSHEN         MOSUNNY   36  24  62 SW14      30.19F
ANGOLA*        SUNNY     36  23  60 SW12      30.18F
FORT WAYNE     PTSUNNY   35  25  66 SW12      30.22F WCI  27
PERU/GRISSOM   PTSUNNY   36  26  66 SW15      30.22F

$$
INZ028>050-312000-
CENTRAL INDIANA

CITY           SKY/WX    TMP DP  RH WIND       PRES   REMARKS
LAFAYETTE      CLOUDY    36  24  62 SW13      30.25F
KOKOMO*        PTSUNNY   37  27  65 SW14      30.24F
MUNCIE*        PTSUNNY   36  23  59 SW10      30.24F
INDIANAPOLIS   CLOUDY    35  21  56 SW14      30.27F WCI  26

$$
MIZ043>046-050>051-056>058-064>065-071>073-077>080-312000-
SOUTHWEST LOWER MICHIGAN

CITY           SKY/WX    TMP DP  RH WIND       PRES   REMARKS
BATTLE CREEK   SUNNY     34  21  59 SW14      30.17F WCI  25
BENTON HARBOR  SUNNY     36  24  62 SW16      30.18F
COLDWATER*     SUNNY     33  22  64 SW13      30.17F WCI  24
HILLSDALE*     SUNNY     34  20  56 SW12      30.16F WCI  26
HOLLAND        CLOUDY    34  25  69 W17       30.17S WCI  23
GRAND RAPIDS   CLOUDY    33  25  72 W14       30.15F WCI  23
KALAMAZOO      SUNNY     34  21  59 SW13      30.17F WCI  25
STURGIS*       SUNNY     34  25  69 SW7       30.17F WCI  28
THREE RIVERS*  FAIR      35  22  58 SW7       30.17F WCI  30

$$
OHZ001>008-015>018-024>025-312000-
NORTHWEST OHIO

CITY           SKY/WX    TMP DP  RH WIND       PRES   REMARKS
DEFIANCE       SUNNY     35  23  61 SW12      30.22F WCI  27
FINDLAY        SUNNY     33  21  61 SW14      30.23F WCI  23
TOLEDO EXPRESS SUNNY     33  21  61 SW9G18    30.21F WCI  25
TOLEDO METCALF SUNNY     32  21  64 SW17      30.23F WCI  21
LIMA           FAIR      33  22  63 SW14      30.23F WCI  23

$$
AND FOR LAKE MICHIGAN COASTAL AND OPEN LAKE BUOY OBSERVATIONS

STATION/POSITION TEMP    WIND        PRES    VSBY  WAVE
                 AIR SEA DIR/SP/G                  HT/PER
                 (F)     (DEG/KT/KT) (MB)    (MI)  (FT/S)
CALUMET HARBOR    37     230/ 10/ 14   N/A
MICHIGAN CITY     36     190/ 13/ 17   N/A
SAINT JOSEPH      33     200/ 12/ 18 1022.4F

$$
&&



USA.gov is the U.S. government's official web portal to all federal, state and local government web resources and services.